Погода в Алкуне

Россия / Республика Ингушетия     42°58′48″N   45°00′47″E
темп.,
°C
ветер,
м/с
пор.,
м/с
влажн.,
%
обл.,
%
осадки,
мм/ч
давл.,
гПа
погр.,
м
5 августа, чт
чт500:00+18ю327062 0.2 101640
03:00+17ю43755 0.4 101648
06:00+17ю33675 0.0 101748
09:00+25сз22485 0.0 1015728
12:00+27ссз324410 0.1 10141603
15:00+28с214375 0.7 10131876
18:00+23ю217151 2.3 101416
21:00+18ю4377100 2.9 101551
6 августа, пт
пт600:00+18ю446814 0.0 101454
03:00+18ююв32540 0.0 101335
06:00+17ю33610 0.0 101340
09:00+26ссв22420 0.0 1011609
12:00+28ссв33380 0.0 10101062
15:00+30св34310 0.0 10081352
18:00+26св25530 0.0 1008165
21:00+19ююв43530 0.0 101046
7 августа, сб
сб700:00+19ю4544100 0.0 100960
03:00+19ю4544100 0.0 100862
06:00+18ю44560 0.0 100859
09:00+28в12310 0.0 1006645
12:00+32св23285 0.0 10051302
15:00+32св23280 0.0 10041648
18:00+27зюз115379 0.0 100511
21:00+21ю4544100 0.0 100870
8 августа, вс
вс800:00+22ююз4540100 0.0 100977
03:00+19ююз3656100 0.0 1010192
06:00+19ююз2566100 0.0 1012125
09:00+25зсз23520 0.0 1012865
12:00+28ссз22422 0.0 10111497
15:00+29с224120 0.1 10111624
18:00+25ююз116432 0.5 101211
21:00+20ю22795 1.3 101530
9 августа, пн
пн900:00+18ю33815 0.4 101636
03:00+18ю327385 0.4 101637
06:00+19ююв32705 0.0 101539
09:00+25ссв22530 0.0 1014781
12:00+28ссв33500 0.0 10141276
15:00+29ссв22480 0.3 10131497
18:00+25в1171100 1.1 101313
21:00+18ююв3291100 3.9 101631